Home > Weather > Kiruna > Past weeks

Flag for Sweden Past Weather in Kiruna, Sweden — Yesterday and Last 2 Weeks

Now
63 °F

Broken clouds.


Feels Like: 63 °F
Forecast: 55 / 72 °F
Wind: 5 mph from Northeast

Location: Kiruna Airport

Current Time: Jul 25, 2016 at 7:57:43 PM

Latest Report: Jul 25, 2016 at 7:20 PM


Visibility: N/A

Pressure: 30.01 "Hg (28.19 "Hg at 532m altitude)

Humidity: 83%

Dew Point: 57 °F

Location of KirunaLocation

Past Weather in Kiruna — Graph

°F

Kiruna Temperature Yesterday

Maximum temperature yesterday: 79 °F (at 3:50 PM)
Minimum temperature yesterday: 54 °F (at 2:20 AM)
Average temperature yesterday: 67 °F

High & Low Weather Summary for the Past Weeks

 TemperatureHumidityPressure
High79 °F (Jul 24, 3:50 PM)100% (Jul 11, 12:50 AM)30.18 "Hg (Jul 11, 12:50 AM)
Low37 °F (Jul 19, 1:50 AM)28% (Jul 20, 6:50 PM)29.42 "Hg (Jul 16, 10:20 PM)
Average59 °F67%29.83 "Hg
* Reported Jul 10 6:20 PM — Jul 25 6:20 PM, Kiruna, Weather by CustomWeather, © 2016

Note: Actual official high and low records may vary slightly from our data, if they occured in-between our weather recording intervals... More about our weather records

Advertising

Kiruna Weather History for the Previous 24 Hours

Scroll right to see more
 ConditionsComfort  
Time TempWeatherWind HumidityBarometerVisibility
6:20 PM
Mon, Jul 25
66 °FPassing clouds.2 mph78%29.98 "HgN/A
5:50 PM61 °FPassing clouds.3 mph88%29.98 "HgN/A
5:20 PM59 °FSprinkles. Scattered clouds.2 mph88%30.01 "HgN/A
4:50 PM59 °FThunderstorms. Partly sunny.6 mph88%30.04 "Hg4 mi
4:20 PM64 °FThunderstorms. Partly sunny.15 mph60%30.01 "HgN/A
3:50 PM72 °FPassing clouds.6 mph57%29.98 "HgN/A
3:20 PM72 °FScattered clouds.5 mph61%29.98 "HgN/A
2:50 PM72 °FScattered clouds.6 mph61%30.01 "HgN/A
2:20 PM72 °FScattered clouds.3 mph61%30.01 "HgN/A
1:50 PM72 °FPartly sunny.5 mph61%30.01 "HgN/A
1:20 PM72 °FPassing clouds.3 mph65%30.01 "HgN/A
12:50 PM70 °FPassing clouds.3 mph64%30.01 "HgN/A
12:20 PM70 °FPassing clouds.3 mph60%30.04 "HgN/A
11:50 AM68 °FScattered clouds.3 mph69%30.04 "HgN/A
11:20 AM66 °FScattered clouds.1 mph78%30.04 "HgN/A
10:50 AM64 °FScattered clouds.3 mph78%30.04 "HgN/A
10:20 AM64 °FScattered clouds.3 mph83%30.07 "HgN/A
9:50 AM63 °FScattered clouds.3 mph88%30.07 "HgN/A
9:20 AM61 °FBroken clouds.3 mph94%30.07 "HgN/A
8:50 AM61 °FBroken clouds.6 mph94%30.04 "HgN/A
8:20 AM61 °FPartly sunny.5 mph94%30.04 "HgN/A
7:50 AM61 °FLow clouds.2 mph88%30.07 "HgN/A
7:20 AM61 °FPassing clouds.3 mph94%30.07 "HgN/A
6:50 AM59 °FScattered clouds.No wind100%30.07 "HgN/A
6:20 AM59 °FPartly sunny.2 mph100%30.07 "HgN/A
5:50 AM59 °FPartly sunny.1 mph94%30.07 "HgN/A
5:20 AM59 °FPartly sunny.2 mph94%30.07 "HgN/A
4:50 AM59 °FPartly sunny.No wind100%30.07 "HgN/A
4:20 AM59 °FPartly sunny.3 mph94%30.07 "HgN/A
3:50 AM59 °FBroken clouds.3 mph94%30.07 "HgN/A
3:20 AM59 °FLight rain. Passing clouds.2 mph100%30.07 "HgN/A
2:50 AM59 °FPartly cloudy.2 mph100%30.07 "HgN/A
2:20 AM59 °FPassing clouds.1 mph100%30.07 "HgN/A
1:50 AM61 °FPassing clouds.5 mph88%30.09 "HgN/A
1:20 AM61 °FLight rain. Passing clouds.3 mph88%30.07 "HgN/A
12:50 AM63 °FLight rain. Overcast.1 mph77%30.09 "HgN/A
12:20 AM63 °FMostly cloudy.3 mph77%30.09 "HgN/A
11:50 PM
Sun, Jul 24
63 °FBroken clouds.5 mph83%30.09 "HgN/A
11:20 PM63 °FMore clouds than sun.7 mph83%30.09 "HgN/A
10:50 PM63 °FBroken clouds.6 mph83%30.07 "HgN/A
10:20 PM63 °FPartly sunny.9 mph83%30.07 "HgN/A
9:50 PM64 °FPartly sunny.8 mph78%30.07 "HgN/A
9:20 PM66 °FMostly cloudy.6 mph73%30.07 "HgN/A
8:50 PM66 °FPartly sunny.5 mph68%30.07 "HgN/A
8:20 PM68 °FSunny.5 mph64%30.07 "Hg10 mi
7:50 PM68 °FSunny.7 mph64%30.07 "Hg10 mi
7:20 PM70 °FSunny.7 mph60%30.07 "Hg10 mi
Weather by CustomWeather, © 2016

See weather overviewHow to use our weather pages